EW9175 Weather Reports


Display with metric or nautical units.
time (UTC)temp
F
wind
direction
speed
MPH
gust
MPH
rain 1hr
in
rain 24hr
in
rain mn
in
humidity
%
barometer
mb
20260506093904 0 0 0.0 0.0 0.00 0.00 0.00 100
20260506092903 0 0 0.0 0.0 0.00 0.00 0.00 100
20260506091902 0 0 0.0 0.0 0.00 0.00 0.00 100
20260506091804 0 0 0.0 0.0 0.00 0.00 0.00 100
20260506090803 0 0 0.0 0.0 0.00 0.00 0.00 100
20260506085803 0 0 0.0 0.0 0.00 0.00 0.00 100
20260506083802 0 0 0.0 0.0 0.00 0.00 0.00 100
20260506081904 0 0 0.0 0.0 0.00 0.00 0.00 100
20260506081804 0 0 0.0 0.0 0.00 0.00 0.00 100
20260506080805 0 0 0.0 0.0 0.00 0.00 0.00 100
20260506071824 0 0 0.0 0.0 0.00 0.00 0.00 100
20260506071723 0 0 0.0 0.0 0.00 0.00 0.00 100
20260506070725 0 0 0.0 0.0 0.00 0.00 0.00 100
20260506061817 0 0 0.0 0.0 0.00 0.00 0.00 100
20260506060818 0 0 0.0 0.0 0.00 0.00 0.00 100
20260506050718 0 0 0.0 0.0 0.00 0.00 0.00 100
20260506044818 0 0 0.0 0.0 0.00 0.00 0.00 100
20260506043818 0 0 0.0 0.0 0.00 0.00 0.00 100
20260506042818 0 0 0.0 0.0 0.00 0.00 0.00 100
20260506042718 0 0 0.0 0.0 0.00 0.00 0.00 100
20260506041720 0 0 0.0 0.0 0.00 0.00 0.00 100
20260506040817 0 0 0.0 0.0 0.00 0.00 0.00 100
20260506035819 0 0 0.0 0.0 0.00 0.00 0.00 100
20260506034918 58 270 1.0 1.0 0.00 0.00 0.00 66 1086.9
20260506033918 59 270 3.0 3.0 0.00 0.00 0.00 66 1086.9
20260506031919 0 0 0.0 0.0 0.00 0.00 0.00 100
20260506031018 60 22 2.0 2.0 0.00 0.00 0.00 63 1086.5
20260506025018 0 0 0.0 0.0 0.00 0.00 0.00 100
20260506024017 0 0 0.0 0.0 0.00 0.00 0.00 100
20260506023918 0 0 0.0 0.0 0.00 0.00 0.00 100
20260506023819 0 0 0.0 0.0 0.00 0.00 0.00 100
20260506022817 0 0 0.0 0.0 0.00 0.00 0.00 100
20260506020918 0 0 0.0 0.0 0.00 0.00 0.00 100
20260506020819 0 0 0.0 0.0 0.00 0.00 0.00 100
20260506015719 0 0 0.0 0.0 0.00 0.00 0.00 100
20260506014617 64 247 2.0 2.0 0.00 0.00 0.00 59 1085.6
20260506014518 64 247 2.0 2.0 0.00 0.00 0.00 59 1085.6
20260506013517 63 292 1.0 1.0 0.00 0.00 0.00 59 1085.8
20260506013416 63 292 1.0 1.0 0.00 0.00 0.00 59 1085.8
20260506013319 63 292 1.0 1.0 0.00 0.00 0.00 59 1085.8
20260506012318 63 247 1.0 1.0 0.00 0.00 0.00 59 1085.8
20260506011319 63 292 0.0 1.0 0.00 0.00 0.00 58 1085.8
20260506010319 64 25 1.0 2.0 0.00 0.00 0.00 58 1085.8
20260506005318 0 0 0.0 0.0 0.00 0.00 0.00 100
20260506004317 64 247 1.0 1.0 0.00 0.00 0.00 57 1085.8
20260506004219 64 247 1.0 1.0 0.00 0.00 0.00 57 1085.8
20260506004117 64 247 2.0 2.0 0.00 0.00 0.00 57 1085.7
20260506003117 0 0 0.0 0.0 0.00 0.00 0.00 100
20260506003018 0 0 0.0 0.0 0.00 0.00 0.00 100
20260506002018 64 292 1.0 2.0 0.00 0.00 0.00 56 1085.6
20260506001017 65 292 3.0 3.0 0.00 0.00 0.00 55 1085.6
20260506000018 65 360 3.0 3.0 0.00 0.00 0.00 56 1085.4
20260505235918 65 8 3.0 4.0 0.00 0.00 0.00 56 1085.4
20260505235016 65 255 2.0 2.0 0.00 0.00 0.00 54 1085.5
20260505234018 67 270 4.0 6.0 0.00 0.00 0.00 47 1085.3
20260505233021 68 247 2.0 3.0 0.00 0.00 0.00 46 1085.3
20260505230016 70 202 1.0 2.0 0.00 0.00 0.00 45 1085.3
20260505225016 68 168 0.0 2.0 0.00 0.00 0.00 47 1085.3
20260505224016 68 157 2.0 3.0 0.00 0.00 0.00 47 1085.6
20260505223016 71 157 2.0 2.0 0.00 0.00 0.00 45 1085.6
20260505222016 70 202 2.0 4.0 0.00 0.00 0.00 46 1085.8
20260505221915 70 214 2.0 3.0 0.00 0.00 0.00 47 1085.8
20260505214917 67 203 1.0 2.0 0.00 0.00 0.00 49 1086.0
20260505213818 67 213 2.0 3.0 0.00 0.00 0.00 49 1086.2
20260505212916 67 183 2.0 5.0 0.00 0.00 0.00 50 1086.3
20260505210917 67 180 1.0 1.0 0.00 0.00 0.00 50 1086.5
20260505210816 67 180 1.0 1.0 0.00 0.00 0.00 50 1086.5
20260505205817 66 229 1.0 3.0 0.00 0.00 0.00 53 1086.5
20260505204816 64 247 2.0 2.0 0.00 0.00 0.00 52 1086.6
20260505203816 64 202 0.0 0.0 0.00 0.00 0.00 53 1086.8
20260505203717 64 202 0.0 0.0 0.00 0.00 0.00 53 1086.7
20260505203617 64 202 2.0 4.0 0.00 0.00 0.00 54 1086.7
20260505202716 63 202 0.0 0.0 0.00 0.00 0.00 54 1086.7
20260505202618 63 202 0.0 0.0 0.00 0.00 0.00 54 1086.7
20260505201616 64 157 2.0 2.0 0.00 0.00 0.00 54 1086.7
20260505201518 64 157 2.0 2.0 0.00 0.00 0.00 54 1086.7
20260505200518 64 179 3.0 4.0 0.00 0.00 0.00 53 1086.6
20260505192519 64 202 2.0 2.0 0.00 0.00 0.00 54 1086.9
20260505191616 63 112 4.0 4.0 0.00 0.00 0.00 55 1087.0
20260505191516 63 112 4.0 4.0 0.00 0.00 0.00 55 1087.0
20260505190519 63 202 0.0 0.0 0.00 0.00 0.00 54 1086.9
20260505185616 62 157 1.0 2.0 0.00 0.00 0.00 55 1086.8
20260505184616 62 232 3.0 4.0 0.00 0.00 0.00 56 1086.8
20260505184516 62 225 3.0 3.0 0.00 0.00 0.00 55 1086.8
20260505183519 63 247 0.0 0.0 0.00 0.00 0.00 56 1086.9
20260505182518 63 157 1.0 2.0 0.00 0.00 0.00 59 1086.8
20260505181616 61 180 1.0 1.0 0.00 0.00 0.00 62 1086.8
20260505181517 60 164 2.0 3.0 0.00 0.00 0.00 62 1086.9
20260505180616 60 157 3.0 3.0 0.00 0.00 0.00 61 1086.8
20260505175715 60 157 1.0 1.0 0.00 0.00 0.00 61 1086.7
20260505174716 0 0 0.0 0.0 0.00 0.00 0.00 100
20260505174616 59 225 2.0 2.0 0.00 0.00 0.00 61 1086.6
20260505173633 0 0 0.0 0.0 0.00 0.00 0.00 100
20260505172716 59 225 1.0 1.0 0.00 0.00 0.00 61 1086.5
20260505171717 59 157 1.0 2.0 0.00 0.00 0.00 64 1086.6
20260505170717 60 202 1.0 1.0 0.00 0.00 0.00 64 1086.8
20260505170616 60 202 1.0 1.0 0.00 0.00 0.00 64 1086.8
20260505165715 0 0 0.0 0.0 0.00 0.00 0.00 100
20260505163716 58 185 1.0 2.0 0.00 0.00 0.00 66 1086.8
20260505163618 0 0 0.0 0.0 0.00 0.00 0.00 100
20260505162715 59 157 0.0 0.0 0.00 0.00 0.00 67 1086.8
20260505162619 59 157 0.0 0.0 0.00 0.00 0.00 67 1086.8
20260505161616 58 202 0.0 0.0 0.00 0.00 0.00 70 1086.6
20260505160615 0 0 0.0 0.0 0.00 0.00 0.00 100
20260505152715 0 0 0.0 0.0 0.00 0.00 0.00 100
20260505140618 0 0 0.0 0.0 0.00 0.00 0.00 100
20260505124615 0 0 0.0 0.0 0.00 0.00 0.00 100
20260505123615 0 0 0.0 0.0 0.00 0.00 0.00 100
20260505122714 0 0 0.0 0.0 0.00 0.00 0.00 100
20260505121615 0 0 0.0 0.0 0.00 0.00 0.00 100
20260505115615 0 0 0.0 0.0 0.00 0.00 0.00 100
20260505114617 0 0 0.0 0.0 0.00 0.00 0.00 100
20260505113615 0 0 0.0 0.0 0.00 0.00 0.00 100
20260505111716 0 0 0.0 0.0 0.00 0.00 0.00 100
20260505101514 0 0 0.0 0.0 0.00 0.00 0.00 100
20260505101416 0 0 0.0 0.0 0.00 0.00 0.00 100
20260505101330 0 0 0.0 0.0 0.00 0.00 0.00 100
20260505100316 0 0 0.0 0.0 0.00 0.00 0.00 100
20260505100214 0 0 0.0 0.0 0.00 0.00 0.00 100
20260505100116 0 0 0.0 0.0 0.00 0.00 0.00 100
20260505095117 0 0 0.0 0.0 0.00 0.00 0.00 100